Retour au catalogue

STARLINK-36972

ActifCommunicationsVLEO
NORAD 68072·PAYLOAD·🇺🇸 United States

Lancé Mar 4, 2026 depuis Vandenberg Space Force Base

Loading…

Prochains Passages (prochaines 24 heures)

TLE

FraisSource: CelesTrak SupGP

Époque: Sep 15, 2026, 03:22 UTC

1 68072C 26042D   26258.14076389  .00057131  00000+0  16884-2 0  2581
2 68072  53.1595  14.5274 0001204  92.8770 145.4626 15.34354091    10

Suivez STARLINK-36972 en temps réel avec AllMySat

Download on the App Store